Location: *
(51.5000°N, 0.1100°W)
Time: 16:47:48
(UTC+00:00)

Resurs 1-4 Rocket - Pass Details

Date: 25 May 2024
Orbit: 798 x 813 km, 98.7° (Epoch: 16 June)

Event Time Altitude Azimuth Distance (km) Brightness Sun altitude
Rises 01:15:06 0° 21° (NNE) 3,319 7.2 -15.5°
Reaches altitude 10° 01:17:41 10° 32° (NNE) 2,384 5.8 -15.4°
Maximum altitude 01:22:24 32° 95° (E) 1,337 3.4 -15.1°
Enters shadow 01:26:45 12° 157° (SSE) 2,260 4.0 -14.9°
